Wind_Speed
4 4 4 4 4 3 3 3 3 3 4 4 4 5 6 7 7 7 8 9 10 11 12 14 14 12 13 13 13 13 12 11 11 11 10 8 7 7 7 7 6 6 5
5 5 4 4 4 4 3 3 3 3 4 4 5 5 6 7 7 7 8 8 8 10 10 12 12 12 12 12 12 12 11 10 10 9 9 8 7 6 6 6 5 5 5
5 5 4 4 3 3 4 4 3 3 3 3 4 5 6 7 8 8 8 9 9 9 10 11 11 11 11 12 12 11 10 9 8 9 8 8 6 6 6 6 5 4 5
6 5 4 4 4 3 3 4 3 3 3 3 3 5 6 7 7 8 8 8 8 8 10 10 10 10 10 11 11 10 9 8 8 8 8 7 7 6 6 5 5 5 5
6 5 5 5 4 4 3 3 3 3 3 3 4 5 6 7 7 7 7 6 7 9 10 10 9 10 10 9 10 10 9 9 8 8 8 7 7 7 6 6 5 5 4
6 6 5 5 4 4 3 3 3 3 3 4 4 5 6 6 6 7 7 7 8 9 9 9 9 10 10 9 9 9 9 8 8 7 7 6 6 7 7 6 6 5 4
7 7 6 5 5 4 3 3 3 3 4 4 3 4 5 6 6 7 7 8 8 9 9 9 9 10 10 9 9 8 7 7 7 6 6 6 6 5 6 5 5 5 4
8 7 6 6 5 4 3 3 3 3 3 4 4 4 4 6 6 7 7 7 7 8 8 9 9 9 9 9 8 8 7 6 6 5 5 5 5 5 4 4 4 4 4
10 9 7 6 5 4 4 3 3 3 3 3 4 4 5 6 6 7 7 7 7 7 7 8 8 8 8 7 7 7 6 6 5 5 5 4 4 3 3 3 3 3 3
11 10 9 7 6 4 4 3 2 2 3 3 3 3 4 5 5 6 6 6 6 6 6 6 6 7 6 6 6 6 6 5 5 4 4 4 3 3 3 3 3 2 2
11 10 9 8 6 5 4 3 2 2 2 3 3 3 3 4 4 5 5 5 5 5 5 5 6 6 5 5 5 5 4 4 3 3 3 3 2 2 2 2 2 1 1
11 10 9 8 7 6 5 4 3 2 2 2 2 3 3 3 4 4 4 5 5 5 5 5 4 4 4 4 4 4 4 3 3 3 3 3 3 3 2 2 1 1 1
11 11 11 9 8 6 5 4 3 2 2 2 2 2 3 3 3 4 4 4 5 4 4 4 4 3 2 3 3 2 2 2 2 2 2 2 2 1 1 1 1 1 2
12 12 11 11 9 7 6 5 4 2 2 2 1 1 2 2 3 3 3 4 4 3 3 3 3 2 2 2 1 1 1 2 1 1 1 1 0 0 1 1 1 2 2
12 12 11 11 10 9 8 7 5 3 3 2 2 1 1 2 3 3 3 2 2 2 2 2 3 2 2 1 1 1 1 1 1 1 1 1 1 2 2 2 2 3 3
12 12 11 11 11 10 9 8 7 6 5 4 3 2 2 2 2 2 2 1 1 2 2 2 2 2 1 1 1 0 1 1 1 1 2 2 2 3 3 3 4 4 4
12 11 11 11 10 10 10 10 8 7 6 5 4 3 2 2 1 1 1 0 1 1 2 2 2 2 2 2 2 2 2 2 3 3 3 3 3 4 4 4 5 5 6
12 12 11 11 10 10 10 9 9 8 7 6 6 5 4 2 1 1 1 1 0 0 0 1 1 1 2 2 3 3 3 3 3 4 4 4 4 5 5 5 6 6 7
13 12 11 10 10 10 10 9 9 9 8 7 6 6 5 4 3 1 1 1 0 0 1 1 1 2 3 3 3 4 4 5 5 5 5 6 6 6 6 6 7 8 8
14 13 12 11 10 10 10 9 9 9 8 7 7 6 6 5 4 2 1 1 1 1 1 1 2 3 3 3 4 5 5 6 6 7 7 7 7 7 8 8 9 9 10
14 13 12 12 11 11 10 10 9 9 8 8 7 7 6 6 6 5 3 2 2 2 2 2 3 4 4 5 6 6 6 6 6 7 7 8 8 8 9 10 10 11 11
15 14 13 13 12 12 11 11 10 9 9 8 8 8 7 7 6 6 5 4 3 4 4 4 4 5 6 6 6 6 6 7 7 7 9 9 9 10 10 10 11 11 12
14 14 13 13 13 13 12 12 11 11 10 10 10 9 9 8 7 7 7 6 5 5 5 5 5 6 7 7 7 7 7 8 8 8 8 9 10 11 11 11 11 12 13
13 14 13 13 13 13 13 12 12 12 12 11 10 10 10 9 9 8 8 7 7 6 5 6 6 7 7 8 8 8 8 8 9 9 9 10 10 11 12 12 13 14 14
12 12 12 13 13 13 13 13 12 11 11 11 10 10 10 10 10 10 9 9 8 8 7 7 8 8 8 9 9 9 10 10 10 10 11 12 12 13 13 13 14 15 15
11 11 11 11 12 12 12 12 12 12 11 10 10 10 10 10 10 10 11 10 9 8 8 8 8 9 10 10 10 11 11 11 11 12 13 13 14 14 15 15 15 15 15
Wind_Direction
45 53 60 57 57 58 59 68 82 89 91 104 108 107 110 107 104 109 105 112 113 113 113 116 116 116 116 119 127 127 125 126 128 128 128 124 120 118 115 112 109 97 95
46 48 51 55 51 48 41 36 54 72 88 101 107 110 113 110 108 107 106 108 110 113 115 119 122 118 120 121 124 127 125 125 129 129 128 123 120 120 118 112 101 89 92
46 44 48 46 42 42 37 41 48 62 81 98 103 101 105 108 106 104 107 107 108 114 121 120 124 122 121 125 126 126 126 124 126 124 124 121 120 116 109 103 97 91 94
45 44 46 41 38 40 43 55 58 59 69 82 92 96 98 102 108 108 103 103 103 106 116 121 121 116 121 126 128 126 124 122 121 123 121 115 111 109 105 99 94 92 95
48 47 48 44 43 44 48 57 66 67 70 82 89 91 97 103 107 110 103 99 103 106 114 116 115 115 119 122 122 122 123 121 119 118 112 109 107 101 98 96 94 89 88
47 47 50 48 49 49 51 59 70 73 81 94 91 95 100 109 113 107 101 96 99 104 109 114 116 120 126 123 122 121 121 121 118 119 116 111 104 97 96 95 90 84 78
48 48 49 49 48 49 50 55 65 77 91 99 98 99 102 112 115 111 104 102 101 103 107 111 115 119 121 121 124 125 124 123 121 119 116 116 112 107 102 95 90 84 75
45 47 47 45 46 49 53 58 64 79 92 97 103 108 108 107 109 109 107 106 105 106 107 108 115 117 121 123 125 125 129 129 123 119 116 115 114 110 104 97 90 84 74
44 45 47 41 41 44 50 62 71 82 90 99 103 101 107 109 107 111 109 109 108 107 109 106 108 114 120 121 120 123 122 122 121 120 118 114 110 105 97 95 90 85 78
39 40 43 42 40 40 42 48 59 89 98 102 102 103 106 110 111 114 114 109 109 110 111 109 105 104 110 109 111 118 120 123 118 118 113 114 111 105 101 99 84 79 78
37 36 37 41 43 44 45 45 61 89 99 99 102 104 108 113 115 119 118 116 112 110 114 116 113 108 111 112 112 113 113 112 116 120 115 112 110 109 106 101 86 70 53
38 37 38 40 42 45 49 50 66 88 94 93 104 103 106 118 116 122 121 118 115 113 114 117 119 110 113 116 116 120 118 113 108 104 105 97 94 93 92 81 61 35 14
38 38 37 36 36 45 51 50 54 72 87 91 98 111 105 111 127 126 124 119 118 115 114 115 112 115 111 118 122 126 119 120 119 115 106 95 99 94 85 46 11 336 330
39 39 40 39 39 41 43 44 44 59 71 66 66 132 120 116 130 131 124 118 122 122 121 124 115 119 122 126 130 121 123 147 139 123 101 100 127 265 269 280 308 313 315
38 38 38 39 40 38 38 44 50 54 66 71 66 73 120 141 132 125 131 135 138 138 132 131 139 138 127 117 124 124 112 160 207 238 284 299 279 270 270 270 280 289 299
37 37 38 39 40 39 37 41 51 55 60 67 66 77 104 120 119 107 120 139 166 173 167 158 165 167 166 173 182 201 215 233 241 245 258 273 286 283 280 279 283 287 292
41 40 40 40 41 42 42 44 50 51 52 57 55 54 74 110 114 93 93 138 181 215 193 189 190 217 233 250 265 269 270 268 261 265 265 268 278 282 282 281 279 285 288
42 42 43 42 42 43 44 47 50 52 56 56 56 55 58 76 93 100 69 51 142 186 194 207 232 255 259 270 276 266 276 274 269 269 273 274 276 281 281 280 279 283 287
41 41 41 41 41 41 42 45 48 50 51 52 53 53 55 58 64 80 51 51 127 211 278 274 276 278 285 288 287 277 276 271 272 271 275 273 274 277 280 279 280 282 285
39 39 40 40 40 39 40 43 45 46 47 47 49 53 56 51 46 42 21 20 18 295 292 296 303 299 293 292 287 283 280 278 274 273 277 279 278 280 281 282 282 284 286
37 39 41 44 45 44 42 43 43 46 47 46 47 49 47 40 36 35 23 20 12 340 316 307 307 311 307 300 292 289 289 283 281 280 280 283 284 286 284 284 285 286 288
38 40 42 44 46 46 45 43 44 50 50 45 44 43 40 37 32 28 22 13 359 344 330 316 310 312 312 306 300 295 296 290 288 287 286 285 285 288 289 289 288 287 291
39 41 43 43 43 43 43 43 43 44 46 44 42 41 36 32 27 23 12 8 352 339 332 320 313 310 309 305 306 301 297 295 294 296 295 289 286 288 291 291 293 290 291
38 40 43 43 43 43 42 42 43 43 42 41 40 36 31 25 21 15 7 0 350 344 335 321 313 309 309 308 308 305 299 299 299 300 299 297 293 293 292 292 292 290 292
35 38 38 38 40 41 39 38 38 38 38 37 35 31 26 20 15 10 3 354 348 343 336 326 313 307 306 307 305 305 303 298 298 297 297 296 295 295 295 293 292 293 292
28 31 33 34 36 36 35 34 33 32 31 31 30 26 22 17 11 6 2 356 348 339 335 329 321 308 303 302 301 300 300 301 304 301 298 295 293 294 296 295 295 298 297
Height
5871 5870 5869 5869 5869 5868 5868 5868 5867 5867 5867 5866 5866 5866 5866 5866 5866 5866 5867 5867 5868 5868 5869 5870 5871 5872 5873 5875 5876 5877 5879 5880 5881 5882 5883 5884 5885 5886 5887 5887 5888 5888 5889
5872 5871 5871 5870 5870 5869 5869 5868 5868 5868 5868 5868 5867 5867 5867 5867 5868 5868 5868 5869 5870 5871 5871 5872 5873 5874 5875 5877 5878 5879 5880 5882 5883 5884 5885 5886 5886 5887 5887 5888 5889 5889 5890
5873 5872 5872 5871 5871 5871 5870 5869 5869 5869 5869 5869 5869 5868 5868 5869 5869 5869 5870 5871 5872 5873 5873 5874 5875 5876 5877 5878 5880 5881 5882 5883 5884 5885 5886 5887 5887 5888 5888 5889 5890 5890 5890
5874 5873 5873 5872 5872 5872 5871 5871 5871 5871 5870 5870 5870 5870 5870 5870 5871 5871 5872 5873 5874 5874 5875 5876 5876 5878 5879 5880 5881 5883 5884 5885 5886 5886 5887 5888 5888 5889 5889 5890 5890 5891 5891
5875 5874 5874 5873 5873 5873 5873 5873 5873 5872 5872 5871 5871 5871 5871 5872 5872 5873 5874 5875 5875 5876 5877 5877 5878 5879 5881 5882 5883 5884 5885 5886 5887 5888 5888 5889 5889 5890 5890 5891 5891 5892 5892
5876 5876 5875 5875 5875 5874 5874 5874 5874 5874 5873 5873 5873 5873 5873 5873 5874 5875 5875 5876 5877 5877 5878 5879 5880 5881 5882 5883 5884 5886 5887 5887 5888 5889 5889 5890 5890 5891 5891 5892 5892 5892 5893
5878 5877 5876 5876 5876 5876 5876 5875 5875 5875 5875 5875 5874 5875 5875 5875 5875 5876 5877 5878 5878 5879 5880 5881 5881 5882 5884 5885 5886 5887 5888 5888 5889 5890 5890 5891 5891 5892 5892 5893 5893 5893 5894
5879 5878 5878 5877 5877 5877 5877 5877 5876 5876 5876 5876 5876 5876 5876 5876 5877 5877 5878 5879 5880 5881 5881 5882 5883 5884 5885 5886 5887 5888 5889 5889 5890 5890 5891 5891 5892 5893 5893 5894 5894 5894 5894
5881 5880 5879 5879 5878 5878 5878 5878 5878 5878 5878 5878 5878 5877 5878 5878 5878 5879 5880 5880 5881 5882 5883 5884 5884 5885 5886 5887 5888 5889 5889 5890 5890 5891 5892 5892 5893 5893 5894 5894 5895 5895 5895
5882 5881 5881 5880 5879 5879 5879 5879 5879 5879 5879 5879 5879 5879 5879 5880 5880 5881 5881 5882 5883 5883 5884 5885 5886 5886 5887 5888 5889 5889 5890 5891 5891 5892 5892 5893 5893 5894 5894 5895 5895 5895 5896
5884 5883 5882 5881 5881 5880 5880 5880 5880 5880 5880 5880 5880 5881 5881 5881 5882 5882 5883 5883 5884 5885 5886 5886 5887 5887 5888 5889 5889 5890 5890 5891 5892 5892 5893 5894 5894 5894 5895 5895 5896 5896 5896
5886 5885 5884 5883 5882 5881 5881 5881 5881 5881 5881 5881 5882 5882 5882 5882 5883 5883 5884 5885 5885 5886 5887 5887 5888 5888 5889 5890 5890 5891 5891 5892 5893 5893 5894 5894 5894 5895 5895 5896 5896 5896 5896
5888 5886 5885 5884 5883 5883 5882 5882 5882 5882 5882 5882 5883 5883 5883 5883 5884 5885 5885 5886 5886 5887 5887 5888 5889 5889 5889 5890 5891 5891 5892 5893 5893 5893 5894 5894 5895 5895 5896 5896 5896 5896 5897
5889 5888 5887 5886 5885 5884 5884 5883 5883 5883 5883 5883 5883 5883 5884 5884 5885 5885 5886 5886 5887 5888 5888 5889 5889 5890 5890 5891 5891 5892 5892 5893 5893 5894 5894 5894 5895 5895 5896 5896 5896 5896 5896
5891 5890 5889 5888 5887 5886 5885 5884 5884 5884 5884 5884 5884 5884 5885 5885 5886 5886 5886 5887 5888 5888 5889 5889 5890 5891 5891 5891 5891 5892 5892 5893 5893 5894 5894 5894 5895 5895 5895 5896 5896 5896 5896
5893 5892 5891 5890 5889 5888 5887 5886 5885 5885 5885 5885 5885 5885 5885 5886 5886 5887 5887 5888 5888 5889 5889 5889 5890 5891 5891 5891 5892 5892 5892 5893 5893 5893 5894 5894 5894 5895 5895 5895 5895 5895 5895
5895 5894 5893 5892 5890 5889 5888 5887 5887 5886 5886 5886 5886 5886 5886 5886 5886 5887 5887 5888 5888 5889 5889 5890 5890 5891 5891 5891 5892 5892 5892 5892 5892 5893 5893 5893 5893 5894 5894 5894 5894 5894 5894
5897 5896 5895 5893 5892 5891 5890 5889 5888 5888 5888 5887 5887 5887 5887 5887 5887 5887 5888 5888 5888 5889 5889 5890 5890 5890 5891 5891 5891 5891 5892 5892 5891 5892 5892 5892 5892 5892 5892 5892 5893 5893 5892
5899 5898 5897 5895 5894 5893 5892 5891 5890 5890 5889 5889 5888 5888 5888 5887 5887 5888 5888 5888 5888 5889 5889 5890 5890 5890 5890 5890 5891 5891 5891 5891 5891 5891 5891 5891 5891 5891 5891 5891 5891 5891 5890
5902 5900 5899 5897 5896 5895 5894 5893 5892 5891 5891 5890 5889 5889 5889 5889 5888 5888 5888 5888 5889 5889 5889 5889 5889 5889 5889 5890 5890 5890 5890 5890 5890 5890 5890 5889 5889 5889 5889 5889 5889 5888 5888
5904 5902 5901 5899 5898 5897 5896 5895 5894 5893 5892 5891 5891 5890 5890 5889 5889 5889 5888 5889 5889 5889 5889 5889 5889 5889 5889 5889 5889 5889 5888 5888 5888 5888 5887 5887 5887 5887 5887 5887 5886 5886 5886
5906 5905 5903 5902 5900 5899 5898 5896 5895 5894 5894 5893 5892 5891 5891 5890 5890 5889 5889 5889 5889 5889 5889 5888 5888 5888 5888 5888 5887 5887 5887 5887 5886 5886 5886 5886 5885 5885 5885 5884 5884 5883 5883
5909 5907 5905 5904 5903 5901 5900 5898 5897 5896 5895 5894 5893 5892 5892 5891 5890 5890 5890 5889 5889 5889 5888 5888 5888 5887 5887 5887 5886 5886 5886 5885 5885 5885 5884 5883 5883 5883 5882 5882 5881 5880 5880
5911 5909 5907 5906 5904 5903 5902 5900 5899 5898 5897 5896 5895 5894 5893 5892 5891 5891 5890 5890 5889 5888 5888 5887 5887 5886 5886 5885 5885 5884 5884 5883 5883 5883 5882 5881 5881 5880 5879 5879 5878 5878 5877
5913 5911 5910 5908 5907 5905 5904 5902 5901 5899 5898 5897 5896 5895 5894 5893 5892 5891 5890 5889 5888 5888 5887 5886 5886 5885 5884 5884 5883 5883 5882 5881 5881 5881 5880 5879 5879 5878 5877 5876 5875 5874 5874
5914 5913 5912 5910 5909 5907 5906 5904 5902 5901 5900 5899 5898 5896 5895 5894 5893 5892 5890 5889 5888 5887 5886 5885 5884 5883 5882 5882 5881 5881 5880 5879 5879 5878 5877 5876 5876 5875 5874 5872 5871 5870 5870